Regional Weather Roundup
Issued by NWS

Home | Current Version | Previous Version | Text Only | Print | Product List | Glossary On
Versions: 1 2 3 4 5 6 7 8 9 10 11 12 13 14 15 16 17 18 19 20 21 22 23 24 25 26 27 28 29 30 31 32 33 34 35 36 37 38 39 40 41 42 43 44 45 46 47 48 49 50
000
ASUS43 KTOP 272159
RWRKS

WEATHER ROUNDUP FOR KANSAS
NATIONAL WEATHER SERVICE GOODLAND KS
500 PM CDT SAT MAY 27 2017

NOTE:  "FAIR" INDICATES FEW OR NO CLOUDS BELOW 12,000 FEET WITH NO
SIGNIFICANT WEATHER AND/OR OBSTRUCTIONS TO VISIBILITY.

KSZ001>006-013>018-027>032-041>047-272300-
NORTHWEST KANSAS

CITY           SKY/WX    TMP DP  RH WIND       PRES   REMARKS
GOODLAND       MOSUNNY   64  49  57 N17       30.04R
HAYS           PTSUNNY   74  61  63 N15       29.90R
HILL CITY      CLOUDY    72  57  59 N15       29.94R
RUSSELL        PTSUNNY   74  60  61 N15       29.87S
$$

KSZ061>065-074>080-084>089-272300-
SOUTHWEST KANSAS

CITY           SKY/WX    TMP DP  RH WIND       PRES   REMARKS
DODGE CITY     CLOUDY    75  56  51 N17       29.91R
ELKHART          N/A     77  48  35 MISG        N/A
GARDEN CITY    CLOUDY    72  54  53 N20G25    29.95R
GREAT BEND     PTSUNNY   77  62  59 N14       29.87S
LIBERAL        MOSUNNY   76  56  49 N13       29.93S
$$

KSZ066>073-081>083-090>101-272300-
SOUTHEAST KANSAS

CITY           SKY/WX    TMP DP  RH WIND       PRES   REMARKS
CHANUTE        MOSUNNY   79  64  60 E7        29.77F
COFFEYVILLE    CLOUDY    79  75  87 N14       29.75R
HUTCHINSON     PTSUNNY   78  62  57 N12       29.83R
MEDICINE LODGE   N/A     80  59  48 N16       29.81R
NEWTON         CLOUDY    75  60  59 N14       29.84R
PARSONS        MOSUNNY   77  67  71 N12G20    29.78R
WICHITA INTL   PTSUNNY   82  63  52 N14       29.79R
WICHITA JABRA  PTSUNNY   80  62  54 N14G21    29.80R
WINFIELD       MOSUNNY   83  69  62 NE13      29.77S
$$

KSZ007>012-019>026-033>040-048>060-102>105-272300-
NORTHEAST KANSAS

CITY           SKY/WX    TMP DP  RH WIND       PRES   REMARKS
CONCORDIA      PTSUNNY   75  61  61 N12       29.86S
EMPORIA        CLOUDY    73  67  81 W5        29.83R
LAWRENCE       CLOUDY    74  65  73 N8        29.80F THUNDER
MANHATTAN      SUNNY     77  63  61 VRB5      29.83S
OLATHE IND     TSTM      68  61  78 NW15      29.86R
OLATHE EXE     LGT RAIN  69  62  78 N7        29.84R
SALINA         MOSUNNY   79  63  57 N16       29.84S
TOPEKA BILLARD CLOUDY    76  67  73 N10       29.82F
TOPEKA FORBES  CLOUDY    77  64  64 N13       29.80F
$$




USA.gov is the U.S. government's official web portal to all federal, state and local government web resources and services.